www.pogodaiklimat.ru

АРХИВ ПОГОДЫ в Палм-Спрингсе

Время (UTC), дата Ветер
(напр.,м/с)
 
Видим.   Явления Облачность Т
(С)
Тd
(С)
f
(%)
Тe
(С)
Тes
(С)
Комфортность

P
(гПа)

Po
(гПа)
Тmin
(С)
Tmax
(С)
R
(мм)
SD
(см)
09:53 20.05 С  16 км    ясно  +15.0  +5.6  53  +13  +13    1006.9  992.3         
10:53 20.05 Ю  16 км    ясно  +13.9  +5.0  55  +13  +13    1007.3  992.6  +13.9  +18.3     
11:53 20.05 ЮВ  16 км    2/0 2700 м
[средняя] 
+15.0  +4.4  49  +14  +14    1007.5  992.9         
12:53 20.05 нст  2
{8} 
16 км    ясно  +16.7  +3.9  42  +17  +17    1007.9  993.3         
13:53 20.05 СЗ  16 км    ясно  +18.3  +3.9  38  +18  +19    1008.6  993.9         
14:53 20.05 нст  16 км    ясно  +20.0  +2.2  31  +21  +25  комфорт  1008.9  994.3         
15:53 20.05 нст  16 км    ясно  +20.6  +2.2  30  +22  +31  комфорт  1009.5  994.9         
16:53 20.05 З  4
{9} 
16 км    ясно  +23.3  +1.1  23  +22  +31  комфорт  1009.3  994.6  +13.9  +23.3     
17:53 20.05 СЗ  9
{14} 
16 км    ясно  +24.4  -0.6  19  +23  +24  комфорт  1009.3  994.6         
18:53 20.05 СЗ  10
{13} 
16 км    ясно  +25.6  -0.6  18  +24  +24  комфорт  1009.4  994.6         
19:53 20.05 СЗ  9
{14} 
16 км    ясно  +26.7  0.0  17  +25  +25  комфорт  1009.1  994.6         
20:53 20.05 СЗ  7
{10} 
16 км    ясно  +26.7  0.0  17  +25  +29  комфорт  1008.5  993.9         
21:53 20.05 СЗ  9
{11} 
16 км    ясно  +26.1  +0.6  19  +24  +25  комфорт  1008.4  993.9         
22:53 20.05 СЗ  8
{13} 
16 км    ясно  +26.1  +0.6  19  +24  +25  комфорт  1008.3  993.6  +23.3  +27.2     
23:53 20.05 З  6
{16} 
16 км    ясно  +25.6  +2.2  22  +24  +26  комфорт  1008.4  993.9         
00:53 21.05 СЗ  10
{12} 
16 км    ясно  +23.9  +2.8  25  +23  +23  комфорт  1008.5  993.9         
01:53 21.05 СЗ  8
{13} 
16 км    ясно  +22.2  +3.9  30  +22  +22  комфорт  1008.5  993.9         
02:53 21.05 СЗ  9
{13} 
16 км    ясно  +21.1  +5.0  35  +22  +22  комфорт  1009.4  994.6         
03:53 21.05 СЗ  11
{14} 
16 км    ясно  +21.1  +3.9  32  +21  +21  комфорт  1009.8  995.3         
04:53 21.05 СЗ  5
{10} 
16 км    ясно  +20.6  +3.3  32  +21  +21  комфорт  1010.2  995.6  +20.6  +26.1     
05:53 21.05 СЗ  16 км    ясно  +19.4  +3.3  34  +21  +21  комфорт  1010.0  995.3         
06:53 21.05 З  16 км    ясно  +20.0  +3.3  33  +21  +21  комфорт  1010.0  995.3         
07:53 21.05 Ю  16 км    ясно  +17.8  +3.3  38  +18  +18    1009.3  994.6         
08:53 21.05 ЮВ  16 км    ясно  +16.7  +5.0  46  +17  +17    1009.1  994.3         
09:53 21.05   16 км    ясно  +16.1  +5.0  48  +16  +16    1008.9  994.3         
10:53 21.05 Ю  16 км    ясно  +15.6  +4.4  47  +16  +16    1008.8  994.3  +15.6  +20.6     
11:53 21.05 нст  16 км    ясно  +15.6  +5.0  49  +15  +15    1008.8  994.3         
12:53 21.05 Ю  16 км    ясно  +16.7  +5.0  46  +17  +17    1009.0  994.3         
13:53 21.05 нст  16 км    ясно  +19.4  +5.0  39  +21  +22  комфорт  1008.9  994.3         
14:53 21.05 З  16 км    ясно  +21.1  +3.3  31  +21  +23  комфорт  1008.6  993.9         
15:53 21.05 С  5
{7} 
16 км    ясно  +23.3  +2.8  26  +23  +26  комфорт  1007.8  993.3         
16:53 21.05 СЗ  3
{12} 
16 км    ясно  +23.9  +2.8  25  +23  +34  комфорт  1007.3  992.6  +15.0  +24.4     
17:53 21.05 С  8
{13} 
16 км    ясно  +25.0  +3.3  24  +24  +26  комфорт  1006.7  991.9         
18:53 21.05 нст  3
{8} 
16 км    ясно  +25.6  +2.2  22  +24  +41  комфорт  1005.8  991.3         
19:53 21.05 С  8
{11} 
16 км    ясно  +27.2  +3.3  21  +26  +27  жарко  1005.0  990.6         
20:53 21.05 СЗ  6
{14} 
16 км    ясно  +26.7  +2.8  21  +25  +31  комфорт  1003.5  988.9         
21:53 21.05 ЮВ  5
{9} 
16 км    ясно  +25.6  +2.8  23  +24  +30  комфорт  1003.5  988.9         
22:53 21.05 ЮВ  16 км    ясно  +24.4  +3.3  25  +24  +32  комфорт  1003.0  988.6  +23.3  +27.2     
23:53 21.05 В  7
{9} 
16 км    ясно  +23.3  +3.9  28  +23  +24  комфорт  1003.0  988.3         
00:53 22.05 С  8
{16} 
16 км    ясно  +21.7  +5.0  34  +22  +22  комфорт  1003.3  988.6         
01:53 22.05 ЮВ  16 км    8/0 2250 м
[средняя] 
+20.0  +4.4  36  +21  +21  комфорт  1004.2  989.6         
02:53 22.05 Ю  16 км    2/2 1950 м  +18.9  +4.4  38  +19  +19    1004.5  989.9         
03:53 22.05 В  16 км    5/5 1950 м  +18.9  +4.4  38  +18  +18    1005.2  990.6         
04:53 22.05 В  4
{9} 
16 км    8/0 2100 м
[средняя] 
+18.3  +5.6  43  +18  +18    1005.6  990.9  +18.3  +24.4     
05:53 22.05 ЮВ  16 км    8/0 2250 м
[средняя] 
+17.8  +5.6  45  +18  +18    1005.3  990.6         
06:53 22.05 В  16 км    ясно  +17.2  +5.6  46  +17  +17    1004.6  989.9         
07:53 22.05 Ю  16 км    ясно  +16.1  +5.6  50  +16  +16    1004.3  989.9         
08:53 22.05 Ю  16 км    5/0 2700 м
[средняя] 
+16.7  +5.6  48  +17  +17    1004.0  989.3         

 

Местоположение метеостанции Palm Springs Regional Airport: широта 33.8222 долгота -116.5043 высота над уровнем моря 124 м.

В архиве по умолчанию представлена погода в Палм-Спрингсе за последние 1-2 суток. Обновление информации о фактической погоде в базе происходит ежечасно! Архивные данные за месяц целиком и за предыдущие месяцы Вы можете получить, выбрав интересующий диапазон дат из раскрывающегося списка и нажав кнопку "Ввод!".

Внимание! Архив погоды МЕТАР в базе сайта в настоящее время начинается c 1 января 2011 г. Нет смысла пытаться выбрать более раннюю дату.

Внимание! Время в таблицах - всемирное. Для получения местного времени необходимо прибавить поправку, которая в Палм-Спрингсе равна -8 ч.

Ветер - указаны скорость ветра в м/с и направление, откуда дует ветер: С - северный, СВ - северо-восточный, В - восточный, ЮВ - юго-восточный, Ю - южный, ЮЗ - юго-западный, З - западный, СЗ - северо-западный.
Видимость - горизонтальная дальность видимости в метрах или километрах. При видимости от 1 до 10 км при отсутствии осадков обычно наблюдается дымка, при ухудшении видимости до 1 км и менее - туман. В сухую погоду видимость может ухудшаться дымом, пылью или мглою.
Атмосферные явления - указаны явления, наблюдавшиеся в указанный момент времени.
Облачность - указаны через наклонную черту верхняя и нижняя облачность в баллах и высота нижней границы облаков в метрах. Внимание: облачность, как и прочие метеорологические величины в США измеряются автоматическими метеостанциями. Указанные значения в баллах носят условный характер и показывают процент времени, в течение которого, в среднем, лазерный луч высотомера отражался от облаков обратно.
T - Температура воздуха - температура, измеренная на высоте 2 м над землей.
Td - Температура точки росы - температура, при понижении до которой содержащийся в воздухе водяной пар достигнет насыщения.
f - Относительная влажность воздуха - влажноcть воздуха, измеренная на высоте 2 м над землей.
Te - Эффективная температура - температура, которую ощущает одетый по сезону человек в тени. Характеристика душности погоды. При расчете учитывается влияние влажности воздуха и скорости ветра на теплоощущения человека.
Tes - Эффективная температура на солнце - температура, которую ощущает человек, с поправкой на солнечный нагрев. Характеристика знойности погоды. Зависит от высоты солнца над горизонтом, облачности и скорости ветра. Ночью, в пасмурную погоду, а также при ветре 12 м/с и более поправка равна нулю.
P - Атмосферное давление - приведенное к уровню моря атмосферное давление.
Po - Атмосферное давление - измеренное на уровне метеостанции атмосферное давление.
Tmin - Минимальная температура - минимум температуры воздуха на высоте 2 м над землей.
Tmax - Максимальная температура - максимум температуры воздуха на высоте 2 м над землей.
R - Количество осадков - Количество выпавших осадков за 3 или 6 часов, мм.
SD - Снежный покров - Высота снежного покрова, см.